JalVayu Vihar FLAT - Greater Noida| Domain & Hosted By Webhostnucleus| Greater noida|
Official website for JVVFOWA, Greater Noida 
Home Admin Log in
Welcome in Jal Vayu Vihar
JalVayu Vihar FLAT - Greater Noida| Domain & Hosted By Webhostnucleus| Greater noida|
 
Notices / Circulars

    Title Updated On

FLATS AVAILABLE FOR SALE/RENTAL AS ON 01 DECEMBER 2019 2019-12-03 17:18:26
NOTIC-58/19 REGISTRATION OF COMPLAINTS REGARDING MAINTENANCE OF FLAT & COMMON AREAS. 2019-11-28 14:43:13
NOTICE-57/19 ALLOTMENT OF OPEN CAR PARKING FLAT/ LOCATION WISE AND CHARGES 2019-11-28 11:26:20
NOTICE 56/19 ALLOTMENT OF OPEN PARKING SLOT 2019-11-28 11:24:08
FLATS AVAILABLE FOR SALE/RENTAL AS ON 26 NOVEMBER 2019 2019-11-26 11:05:02
NOTICE – 49/19 FIRE PRECAUTION 2019-11-19 14:16:50
CIRCULAR 53/19 NAVY DAY CELEBRATION 2019-11-19 13:58:47
FLATS AVAILABLE FOR SALE/RENTAL AS ON 28 OCT 2019 2019-10-28 13:02:15
NOTICE- 48/19 URGENT NOTICE 2019-10-19 13:14:18
NOTICE 2019-10-07 13:37:01
NOTICE 2019-10-07 13:37:01
CIRCULER 47/19 SOLID WASTE MANAGEMENT RULE-2016 2019-10-07 13:27:32
CICULAR 46/19 BAN ON USE OF SINGLE USE PLASTIC 2019-10-03 13:09:45
NOTICE 45/19 AIR FORCE DAY CELEBRATION 2019 2019-10-03 12:39:46
FLATS AVAILABLE FOR SALE/RENTAL AS ON 23 SEP 2019 2019-09-23 15:12:21
NOTICE 44/19 AIR FORCE CELEBRATION DAY 2019-09-22 17:25:05
NOTICE 43/19 वोटर कार्ड संसोधन कैंप 2019-09-21 13:29:16
NOTICE 41/19 SUBJECT :- SHUTDOWN OF PNG NETWORK ON ACCOUNTING FOR TESTING 2019-09-21 13:26:51
NOTICE 42/19 SUBJECT :- ALLOTMENT OF OPEN CAR PARKING 2019-09-21 11:10:07
OUTSTANDING LIST AS ON 14 SEP 2019 2019-09-14 16:54:01
CIRCULER 39/19 - CELEBRATION AIRFORCE DAY 2019 2019-09-14 15:02:08
CIRCULAR 37/18 - AIR FORCE DAY CELEBRATION – 08 OCT 2019 (TUESDAY) 2019-09-14 14:59:57
NOTICE 36/19 - SECURITY OF VEHICLE VIS-À-VIS PARKING AREA 2019-09-14 14:58:42
SCREENING COMMITTEE MEETING 2019-08-30 16:13:16
AGENDA POINTS - 01 SEP 2019 2019-08-30 16:11:33
FLATS AVAILABLE FOR SALE/RENTAL AS ON 26 AUGUST 2019 2019-08-26 11:19:54
NOTICE 34/19- SWIMMING POOL CLOSURE 2019-08-26 10:58:43
Notice 33/19- GBM NOTIFICATION 2019-08-26 10:56:49
FLATS AVAILABLE FOR SALE/RENTAL AS ON 05 AUGUST 2019 2019-08-05 14:14:53
FLATS AVAILABLE FOR SALE/RENTAL AS ON 25 JULY 2019 2019-07-25 16:19:46
FLATS AVAILABLE FOR SALE/RENTAL AS ON 28 JUNE 2019 2019-06-28 11:15:00
अति आवश्यक सूचना 2019-06-28 11:13:56
FLATS AVAILABLE FOR SALE/RENTAL AS ON 25 APRIL 2019 2019-04-25 10:55:32
Requirement of Security Agency 2019-20 2019-04-25 10:42:24
NOTICE 19/19 - AGM NOTIFICATION 2019-04-14 12:35:06
CIRCULAR 18/19 - COMMENCEMENT OF SWIMMING POOL OPERATION 2019-04-14 12:33:01
CIRCULAR 16/19 - BOARD OF MEMBERS - SECURITY CONTRACT 2019-20 2019-04-14 12:31:52
CIRCULAR 15/19 - COMMENCEMENT OF SWIMMING POOL JALVAYU VIHAR, GREATER NOIDA 2019-04-14 12:30:02
SOP FOR ALLOTMENT OF OPEN CAR PARKING (OCP) 2019-03-24 16:57:15
CIRCULAR 13/19 - ALLOTMENT OF OPEN CAR PARKING 2019-03-24 16:56:50
CIRCULAR 08/19 - DONATION FOR TEMPLE 2019-03-24 16:55:30
CIRCULAR 07/19 - INAUGURATION OF WAR MEMORIAL BY PRIME MINISTER 2019-03-24 16:54:41
CIRCULAR 06/19 - SOLIDARITY & SHRANDHANJALI 2019-02-18 12:06:05
WEEKLY DUTY ROSTER- 18 Feb 19 (Monday) TO 24 Feb 19 (Sunday) 2019-02-18 11:55:41
FLATS AVAILABLE FOR SALE/RENTAL AS ON 18 FEB 2019 2019-02-18 11:51:16
FLATS AVAILABLE FOR SALE/RENTAL AS ON 07 FEB 2019 2019-02-07 11:05:19
FLATS AVAILABLE FOR SALE/RENTAL AS ON 27 JAN 2019 2019-01-27 11:13:58
OUTSTANDING LIST AS ON 20 JAN 2019 2019-01-20 16:23:03
FLATS AVAILABLE FOR SALE/RENTAL AS ON 20 JAN 2019 2019-01-20 16:20:56
WEEKLY DUTY ROSTER- 21 Jan 19 (Monday) TO 27 Jan 19 (Sunday) 2019-01-20 16:19:10
WEEKLY DUTY ROSTER - 07/01/19 (Monday) TO 13/01/19 (Sunday) 2019-01-07 14:31:31
FLATS AVAILABLE FOR SALE/RENTAL AS ON 07 JAN 2019 2019-01-07 14:30:15
FLATS AVAILABLE FOR SALE/RENTAL AS ON 20 DECEMBER 2018 2018-12-20 17:03:23
CIRCULAR 68/18 - NEW YEAR CELEBRATIONS AT JVV ON 31 DEC 2018 2018-12-20 17:02:31
NOTICE 67/18 - COMMITTEE FOR ENCROACHMENT IN COMMON AREA (UNAUTHORIZED & ILLEGAL) 2018-12-20 17:00:51
NOTICE 66.18 EXECUTION OF WORK IN COMMUNITY HALL 2018-12-20 16:59:12
NOTICE 65/18 - UNAUTHORISED CONSTRUCTION AND ILLEGAL ENCROACHMENT BY ALLOTTEE /TRANSFEREE 2018-12-06 16:31:12
NOTICE 64/18 - GST COLLECTION/ PAYMENT 2018-12-02 15:47:56
NOTICE 63/18 - OUTSTANDING DUES MORE THAN 06 MONTHS 2018-12-02 15:46:03
NOTICE 62/18 - COMMITTEE: EXECUTION OF WORK IN COMMUNITY HALL 2018-12-02 15:43:59
FLATS AVAILABLE FOR SALE/RENTAL AS ON 02 DECEMBER 2018 2018-12-02 15:42:52
WEEKLY DUTY ROSTER 19/11/18 (Monday) TO 25/11/18 (Sunday) 2018-11-24 10:41:44
FLATS AVAILABLE FOR SALE/RENTAL AS ON 18 NOV 2018 2018-11-24 10:40:39
NOTICE 61/18 FORMATION OF SUB COMMITTEE 2018-11-24 10:39:26
CIRCULAR 60/18 FORMATION OF BOM FOR AUDIT OF A/C QUARTER ENDING 30 SEP 2018 2018-11-13 16:41:02
CIRCULAR 59/18 PROVISIONAL BALANCE SHEET JVVFOWA QUARTER ENDING JUNE 2018 (FY 2018-19) 2018-11-13 16:39:30
CIRCULAR 58/18 PRESS SHOP FALLING VACANT 2018-11-13 16:38:06
WEEKLY DUTY ROSTER - 12/11/18 (Monday) TO 18/11/18 (Sunday) 2018-11-13 16:36:53
FLATS AVAILABLE FOR SALE/RENTAL AS ON 12 NOV 2018 2018-11-13 16:35:50
FLATS AVAILABLE FOR SALE/RENTAL AS ON 29 OCT 2018 2018-11-02 09:52:40
WEEKLY DUTY ROSTER - 22/10/18 (Monday) TO 28/10/18 (Sunday) 2018-10-21 16:55:44
NOTICE 57/18 GBM NOTIFICATION 2018-10-21 16:53:54
CIRCULAR 56/18 - IMPORTANT NOTICE ALLOCATION OF OPEN CAR PARKING IN JVV 2018-10-21 16:53:20
FLATS AVAILABLE FOR SALE/RENTAL AS ON 21 Oct 2018 2018-10-21 16:47:48
FLATS AVAILABLE FOR SALE/RENTAL AS ON 15 Oct 2018 2018-10-15 17:15:36
FLATS AVAILABLE FOR SALE/RENTAL AS ON 10 SEP 2018 2018-09-10 17:08:52
FLATS AVAILABLE FOR SALE/ RENTALS AS ON 31 AUG 2018 2018-09-01 10:12:05
CIRCULAR 51/18 TENANCY/ SALE PURCHASE SCREENING COMMITTEE MEETING 2018-08-25 16:19:49
FLATS AVAILABLE FOR SALE/ RENTALS AS ON 20 AUG 2018 2018-08-20 11:38:56
REQUIREMENT OF A SOFTWARE SYSTEM FOR JVVFOWA 2018-08-14 09:48:23
FLATS AVAILABLE FOR SALE/ RENTALS AS ON 05 AUG 2018 2018-08-06 11:37:06
FLATS AVAILABLE FOR SALE/ RENTALS AS ON 30 JULY 2018 2018-08-02 11:39:21
FLATS AVAILABLE FOR SALE/ RENTALS AS ON 23 JULY 2018 2018-07-27 10:57:08
NOTICE 45/18 - RENTING /SALE/ PURCHASE OF FLATS 2018-07-10 11:46:18
CIRCULAR 39/18 ADDING OF LADIES MEMBERS 2018-07-10 10:14:26
NOTICE 42/18 REQUIREMENT OF ADDITIONAL CAR PARKING (OPEN SLOT) 2018-07-10 10:12:44
AGENDA POINTS - GBM ON 10 JUN 2018 (SUNDAY) 2018-06-09 10:46:47
NOTICE 27/18-DEMO FOR POOL SCUBA 2018-06-08 13:00:47
CONSTITUTION OF NEW COMMITTEES - JVVFOWA GREATER NOIDA 2018-05-29 15:10:33
NOTICE 26/18 - GBM NOTIFICATION 2018-05-29 15:09:06
NOTICE 25/18 - CONDUCT OF POOL SCUBA TRAINING - DEMAND SURVEY 2018-05-29 15:08:41
NOTICE 23/18 - DISSOLUTION OF SUB COMMITTEES JVVFOWA GREATER NOIDA 2018-05-13 13:58:46
OUTSTANDING DUES (JVVFOWA) AS ON 11 MAY 2018 2018-05-11 12:29:34
FLATS AVAILABLE FOR SALE/ RENTALS AS ON 30 APR 2018 2018-05-01 12:41:06
NOTICE 20/18 - COMMENCEMENT OF SWIMMING POOL OPERATION 2018-04-29 11:07:11
NOTICE 19/18- COMMON AREA MAINTENANCE & WATER CHARGES 2018-04-26 12:17:41
FLATS AVAILABLE FOR SALE/ RENTALS AS ON 22 APR 2018 2018-04-23 12:43:15
OUTSTANDING DUES (JVVFOWA) AS ON 22 APRIL 2018 2018-04-23 12:38:33
NOTICE 18/18 - REGISTRATION OF FLATS IN NAME OF SUBSEQUENT ALLOTTEES/ TRANSFEREES 2018-04-23 12:36:42
ELECTION RESULT 2018 - JVVFOWA, GREATER NOIDA 2018-04-09 16:12:47
NOTICE - JVVFOWA ELECTION 2018 2018-04-07 16:31:44
CIRCULAR 15/18 - DEFUNCT FHS 2018-04-07 16:30:26
NOTICE 14/18 - DISPOSAL OF DEFUNCT FIRE HYDRANTS SCRAP 2018-04-03 10:48:03
FLATS AVAILABLE FOR SALE/ RENTALS AS ON 02 APR 2018 2018-04-03 10:47:23
NOTICE 13/18 - DISPOSAL OF DEFUNCT FIRE HYDRANT SYSTEM 2018-04-02 10:43:18
JVVFOWA: GREATER NOIDA FINAL LIST OF CONTESTANTS 2018-03-30 12:32:58
Minutes of Meeting of Appellate Committee Held on 25th Mar 2018 2018-03-30 12:31:50
FLATS AVAILABLE FOR SALE/ RENTALS AS ON 26 MAR 2018 2018-03-27 16:29:54
CIRCULAR - MEETING OF APPELLATE COMMITTEE AT 1230 HRS ON 24 MAR 18 (SATURDAY) 2018-03-23 15:45:40
JVVFOWA: GREATER NOIDA SCRUTINIZED LIST OF NOMINATION 2018-03-23 11:04:24
NOTICE 12/18 COMMENCEMENT OF SWIMMING POOL JALVAYU VIHAR, GREATER NOIDA 2018-03-23 11:03:03
OUTSTANDING DUES (JVVFOWA) AS ON 22 MARCH 2018 2018-03-23 10:57:53
Reference Notification for Elections Year 2018 dated 07 Mar 2018 2018-03-16 16:48:51
Voter List for JVVFOWA, Greater Noida Election 2018-19 2018-03-11 10:11:52
NOTICE - NOTIFICATION FOR ELECTIONS YEAR 2018 2018-03-10 13:46:33
NOTIFICATION FOR ELECTIONS YEAR 2018-19 2018-03-08 14:36:39
FLATS AVAILABLE FOR SALE/ RENTALS AS ON 05 MAR 2018 2018-03-06 16:20:04
NOTICE 11/18 AGM AGENDA 2018-03-01 15:10:16
CIRCULAR 10/18 - HOLI CELEBRATIONS 2018-03-01 14:27:01
NOTICE 09/18 - SECURITY ADVISORY 2018-03-01 14:25:51
SOCIETY ISSUES: HOSTILE ENVIRONMENT 2018-02-20 16:01:45
NOTICE 08/18 - AGM NOTIFICATIONS 2018-02-20 15:30:56
CIRCULAR 07/18 - INTERIM NOMINATIONS 2018-02-20 15:20:01
FLATS AVAILABLE FOR SALE/ RENTALS AS ON 20 FEB 2018 2018-02-20 15:17:13
NOTICE 06/18 GNIDA LETTER FOR SUBSEQUENT ALLOTTEES REGISTRATIONS 2018-02-16 15:49:00
OUTSTANDING DUES (JVVFOWA) AS ON 15 FEB 2018 2018-02-16 15:47:28
FLATS AVAILABLE FOR SALE/ RENTALS AS ON 11 FEB 2018 2018-02-16 15:46:38
OUTSTANDING LIST AS ON 04 FEB 2018 2018-02-10 14:05:50
FLATS AVAILABLE FOR SALE/ RENTALS AS ON 05 Feb 2018 2018-02-10 14:04:48
JVV HAAT ON SATURDAY 03 FEB 2018 AT COMMUNITY LAWNS 2018-01-30 14:53:04
FLATS AVAILABLE FOR SALE/ RENTALS AS ON 29 Jan 2018 2018-01-30 14:52:17
FLATS AVAILABLE FOR SALE/ RENTALS AS ON 21 Jan 2018 2018-01-25 10:15:59
RENEWAL OF DOMESTIC PASSES 2017-12-15 17:11:36
FLATS AVAILABLE FOR SALE/ RENTALS AS ON 11 Dec 2017 2017-12-12 10:12:06
FLATS AVAILABLE FOR SALE/ RENTALS AS ON 04 Dec 2017 2017-12-07 15:52:30
FLATS AVAILABLE FOR SALE/ RENTALS AS ON 26 Nov 2017 2017-12-02 10:09:17
SPECIAL GBM is planned on 26 Nov 17 (Sunday) 2017-11-23 11:20:58
FLATS AVAILABLE FOR SALE/ RENTALS AS ON 20 Nov 2017 2017-11-20 14:06:14
FLATS AVAILABLE FOR SALE/ RENTALS AS ON 13 Nov 2017 2017-11-13 15:08:14
FLATS AVAILABLE FOR SALE/ RENTALS AS ON 06 Nov 2017 2017-11-07 15:13:08
FLATS AVAILABLE FOR SALE/ RENTALS AS ON 23 OCT 2017 2017-10-23 10:19:28
HOUSEKEEPING SERVICES WILL NOT BE AVAILABLE ON SATURDAY - 21 OCT 2017 2017-10-20 15:16:45
Minutes of BoM held on 05 Oct 2017 2017-10-16 14:53:38
FLATS AVAILABLE FOR SALE/ RENTALS AS ON 15 OCT 2017 2017-10-16 12:10:02
TOWN HALL MEETING POSTPONED 2017-09-23 11:41:52
Duties in absence of President 2017-09-22 13:41:55
Notice - Allotment of Shop No 01 (Grocery Shop) 2017-09-18 13:00:29
Flats Available For Sale/ Rental as on 18 Sep 2017 2017-09-18 12:55:10
AFA Raising Day - 15 Sep 2017 2017-09-14 14:27:09
Tenancy/ Sale Purchase Screening Committee Meeting on 16 Sep 2017 2017-09-14 14:26:08
JVVFOWA News Letter - 01/17 2017-09-14 10:07:09
Flats Available For Sale/ Rental as on 04 Sep 2017 2017-09-04 17:01:08
Non- Maintenance Electrical/ Plumbing Jobs 2017-09-02 13:31:06
Flats Available For Sale/ Rental as on 28 Aug 2017 2017-08-28 13:19:50
Removal Of CCTVs Cameras 2017-08-28 12:28:18
AGENDA POINTS - GBM ON 06 AUG 2017 2017-08-05 10:58:02
Flats Available for Sale & Rentals as on 31 July 2017 2017-08-04 15:32:11
Janmashtami Celebration on 15 August 2017 2017-08-04 15:16:19
Tenancy/ Sale Purchase Screening Committee Meeting 2017-08-04 11:46:27
GBM is planned on 06 August 2017 (Sunday) 2017-07-30 10:22:50
BoM Inductions 2017-07-08 11:33:59
Notice - Indulgence with Security and office staff 2017-07-08 11:32:15
Notice--Inclusion of Member in Mandir Committee 2017-07-03 13:17:10
Advisory--Personal Safety/ Greenery 2017-07-03 11:51:45
Flats available on Sale & Rental as on 03 July 2017 2017-07-03 10:33:02
FLATS AVAILABLE THRO SOCIETY 2017-06-06 14:33:47
Renewal of Lease Deed: Tenants 2017-06-02 10:08:24
Maintenance & Water charges 2017-05-18 15:21:44
Notice - Domestic Servants 2017-05-16 15:40:55
Sale/Purchase/Renting of Flats 2017-05-14 14:33:29
JVVFOWA Final Balance Sheet as on 31st March 2017 (FY- 2016 - 2017) 2017-05-13 17:40:12
Tenancy / Sale purchase Screening Committee Meeting 2017-05-11 13:37:37
Final result of Election 2017 2017-05-07 14:44:06
Display of final List of Contestants for Election - 2017 2017-05-05 16:02:24
JVVFOWA - Election Time 2017-05-05 14:22:08
RESCHEDULE : SPECIAL GBM 2017-05-03 00:30:12
Special General Body Meeting is planned on 04 May 2017 (Thursday). 2017-05-02 12:11:23
AWARD OF CONTRACT FOR SECURITY AGENCY : JALVAYU VIHAR, GR. NOIDA 2017-04-30 16:22:07
RESULT OF SAFAI COMPETITION UNDER SWATCH BHARAT ABHIYAN 2017-04-20 16:42:00
Notice 2017-04-18 13:52:54
Notice - Election Notification 2017-04-17 09:59:59
स्वच्छ भारत अभियान के अंतर्गत प्रतियोगिता समापन समारोह 2017-04-17 09:59:13
Notice - Swimming Pool 2017-04-17 09:57:17
Notice 2017-04-13 17:26:18
Voter List for JVVFOWA, Greater Noida Election 2017 - 2018 2017-04-12 13:36:33
Notification For Elections 2017 - 2018 2017-04-10 11:40:22
JVVFOWA Provisional Budget (FY- 2017 - 2018) 2017-04-07 18:00:10
Agenda points for AGM on 09 April 2017 2017-04-07 15:34:11
Notice - Tenancy / Sale purchase Screening Committee Meeting 2017-04-06 12:11:08
Notice - Bye-Laws of JVVFOWA 2017-04-02 16:39:22
Notice - Annual General Meeting will be held on 09 Apr 2017 2017-03-25 16:57:41
स्वच्छ भारत अभियान : प्रतियोगिता 2017-03-23 10:49:26
Notice - Swimming Pool of JVVFOWA is rescheduled to open 2017-03-23 10:36:42
Notice - Security of Fire Extinguishers 2017-02-24 14:53:46
Requirement of Security Agency 2017-02-10 17:31:24
Notice - Increase of Salary to Society Staff 2017-01-31 17:08:44
Board Of Members - Increase Of Salary (2017) 2017-01-29 12:42:20
Republic Day Celebrations 2017-01-17 17:04:41
Constitution of New Swimming Pool Committee 2017-01-17 17:01:51
Board Of Members - Taxation, Accounting & Statutory Audit works 2017-01-17 17:00:08
Jalvayu Vihar, Greater Noida Weekly News Letter 12 Dec 2016 – 18 Dec 2016 2016-12-12 11:22:49
Notice - Security: Jalvayu Vihar, Gr. Noida Introduction of New Vehicle Stickers 2016-12-10 16:50:42
Notice - Govt. Decision on Cashless Transaction use of PAYTM in Shops of JVVFOWA 2016-12-05 10:20:09
Management Committee Meeting 2016-11-21 16:05:31
Notice - Maintenance & Upkeep of Pet Dogs & Dog Menace 2016-11-21 16:04:43
Work Order for the Repair Work of Dana Plaster 2016-11-21 16:03:27
Statement Of Work 2016-11-10 17:17:07
Jalvayu Vihar, Greater Noida Weekly News Letter 07 Nov 2016 – 13 Nov 2016 2016-11-08 15:37:36
Jalvayu Vihar, Greater Noida Weekly News Letter 24 Oct 2016 – 30 Oct 2016 2016-10-25 14:25:23
Allotment of Temporary Kiosk No. 01 (Tea Shop) 2016-10-20 17:08:52
Enhancement of Security Measure for Jalvayu Vihar 2016-10-18 11:30:22
Jalvayu Vihar Weekly News Letter 19 Sep to 25 Sep 2016 2016-09-22 12:09:40
Reconstitution of shopping Committee 2016-09-12 16:52:19
Constitution of New Purchasing Committees 2016-09-08 17:16:34
Constitution of New Mandir Committees 2016-09-05 11:05:41
Post of Tresurer, JVVFOWA 2016-09-04 17:16:32
Audit & Financial Health Committee 2016-09-04 10:14:42
Notice - Post of Secretary, JVVFOWA 2016-09-02 09:30:10
OPEN HOUSE FORUM 2016-08-27 09:58:27
Constitution of New Committees 2016-08-21 15:29:08
Notice - Officiating secretary 2016-08-21 15:28:14
TAMBOLA 2016-08-20 11:42:33
Culture Programme - Janmasthmi 2016-08-20 11:40:26
Fogging Inside the Jalvayu Vihar 2016-08-12 12:55:31
OPEN HOUSE FORUM 2016-08-12 12:54:47
Independence Day Celebration 15 August 2016 2016-08-12 12:54:07
TAMBOLA 2016-08-04 16:07:39
OPEN HOUSE FORUM 2016-07-29 10:16:22
CONSTITUTION OF MANAGEMENT COMMITTEE - 2016 2016-07-26 15:41:12
Provisional Banalce Sheet 30th June 2016 (FY 2016 - 2017) 2016-07-22 17:06:22
Jalvayu Vihar, Greater Noida Weekly News Letter 26 June 2016 02 July 2016 2016-06-26 15:16:59
Special General Body Meeting is planned on 03 July 2016 (Sunday). 2016-06-26 15:16:22
Final result of Election 2016 2016-06-19 14:48:23
Voter List (See Note below)for JVVFOWA, Greater Noida Election 2016 2016-05-24 10:33:42
Budget 2016 -17 2016-05-24 10:31:52
Balance Sheet 2015 - 16 2016-05-24 10:30:07
Clerification on NEFT payment by Owner/Tenant 2016-05-14 12:47:57
Agenda Points AGM 2016-05-13 16:36:08
A final copy of Bye-Laws with minor modification 2016-05-13 16:34:28
Draft Budget FY 2016 - 2017 2016-04-25 09:46:53
Jalvayu Vihar, Greater Noida Weekly News Letter 24 April 2016 30 April 2016 2016-04-25 09:44:57
ANNUAL GENERAL MEETING (AGM) 2016-04-19 11:56:59
requirement of photo copy/ computer shop 2016-04-02 16:59:36
Penalty for keeking boxes 2016-03-14 17:57:42
Details of Safaiwals block wise 2016-03-14 17:55:40
Jalvayu Vihar, Greater Noida Weekly News Letter 28 Feb 16 05 Mar 2016 2016-02-29 11:31:48
Jalvayu Vihar, Greater Noida Weekly News Letter 21 Feb 16 27 Feb 2016 2016-02-21 10:35:14
RAM JANAKI MANDIR AUDITED ACCOUNT 2016-02-14 14:18:57
CONDOLENCE MEETING FOR MARYER OF SIACHEN GLACIER 2016-02-13 15:52:01
POLICY FOR REPLACEMENT OF FLOAT VALVE ASSEMBLY 2016-02-09 10:41:54
Jalvayu Vihar, Greater Noida Weekly News Letter 07 Feb 16 13 Feb 2016 2016-02-09 10:41:02
Jalvayu Vihar, Greater Noida Weekly News Letter 31 Jan 16 06 Feb 2016 2016-02-01 12:53:16
Notice - Guidelines for Mandir Committee, Pujari and Devotees 2016-01-23 12:45:56
Jalvayu Vihar, Greater Noida Weekly News Letter 17 Jan 16 - 23 Jan 16 2016-01-18 13:55:02
Jalvayu Vihar, Greater Noida Weekly News Letter 10 Jan 16 - 16 Jan 16 2016-01-12 15:31:56
Jalvayu Vihar, Greater Noida Weekly News Letter 27 Dec 15 02 Jan 16 2015-12-27 16:19:10
Sale purchaseTenancy Screening Committee Meeting 2015-12-26 09:47:13
CIRCULAR MANAGEMENT COMMITTEE MEETING ON 24 December 2015 (THURSDAY) AT 1600 HRS 2015-12-22 16:17:24
Weekly News Letter 20 Dec 15 - 26 dec 15 2015-12-20 15:15:27
chrestmas carnival on 25th dec 2015 2015-12-19 11:34:12
Proposal for Reconstitution of Mandir Committee 2015-12-14 10:29:02
Weekly News Letter 13 Dec 15 - 19 dec 15 2015-12-14 10:26:14
Duty norms for maintenance staff 2015-12-08 10:52:49
Proposal for hiring of Gymnasium 2015-12-08 10:34:03
plan for General body meeting on 27Dec,2015 2015-12-08 10:32:23
Weekly news letter/outstanding dues list 2015-12-08 10:27:04
Notice timely Payment of monthly dues 2015-12-07 11:35:01
Weekly News Letter/ Duty Roster 16 to 22 Nov 2015 2015-11-15 14:31:15
Deepawali Wishes to All the Residents 2015-11-09 16:46:11
Notice- Deepawali Celebration 2015 2015-11-09 16:45:04
Weekly News Letter/ Duty Roster 09 to 15 Nov 2015 2015-11-08 15:56:04
Weekly News Letter/ Duty Roster 02 to 08 Nov 2015 2015-11-01 16:35:26
Emergency General Body Meeting 2015-10-26 11:14:02
Weekly News Letter/ Duty Roster 26 Oct to 01 Nov 2015 2015-10-25 14:13:06
Weekly News Letter/ Duty Roster 19-25 Oct 2015 2015-10-18 14:35:43
Notice- Timely Payment of Dues 2015-10-18 14:33:07
Jal Vayu Vihar Directory 2015 2015-10-16 13:37:04
Agenda Point MC Meeting on 17 Oct 2015 2015-10-16 13:34:13
Notice- EGBM on 18 Oct 2015. 2015-10-12 14:03:25
Weekly News Letter 12 to 18 Oct 2015 2015-10-11 14:19:12
Notice- Swatch Jal Vayu Vihar- Swatch Bharat 2015-10-09 12:14:29
Notice- Volunteer Treasurer 2015-10-09 10:36:41
Rate List of Clothing Iron 2015-10-05 14:08:25
Society Office Bearers and Employees Mobile Numbers 2015-10-05 14:02:37
Weekly News letter and Duty Roster 05 Oct to 11 Oct 2015 2015-10-04 16:50:06
Notice- 2 Oct 2015 (Gandhi Jayanti) 2015-10-01 15:29:32
Notice- Water Leakage from AC 2015-09-29 17:32:35
Notice- Works Committee, Jal Vayu Vihar 2015-09-29 17:31:34
Notice- Purchase Committee- Special Items 2015-09-29 17:25:31
Notice- Maintenance of Central Park 2015-09-29 12:38:27
Notice- Four/ Two Wheelers in the Society- Non Adherance of Norms 2015-09-26 13:58:55
Notice- Reconstitution of Screening Committee 2015-09-17 14:56:19
Notice- Replacement of Water Tank Cover 2015-09-17 14:53:08
Notice-Shut down of PNG network on 14 Sep 2015 2015-09-12 12:14:03
Outstanding dues list for maintenance & Water chages list 1 -JVVFOWA Gr. Noida 2015-09-12 12:11:26
Outstanding dues list for maintenance & Water chages -JVVFOWA Gr. Noida 2015-09-12 12:09:57
Opinion of Permanent Member of JVV on Important Issue and Authentication of E-mail 2015-09-08 14:20:10
Quarterly Internal Audit JVVFOWA 01 Apr to 30 June 2015 2015-08-31 11:28:53
Agenda Point GBM 30 Aug 2015-Amendment 2015-08-27 16:12:44
Agenda Point GBM Meeting 30 Aug 2015 2015-08-25 18:23:19
Agenda Points MC Meeting 28 Aug 2015 2015-08-25 18:22:16
Maintenece & Upkeep of Pet Dogs & Dog Menace 2015-08-17 13:50:41
Final Draft of Bye-Laws 2015 2015-08-11 14:10:18
Authorization letter 2015-06-27 13:37:26
Enhancement of Land Compensation 2015-06-26 13:01:28
Notice- International Yoga Day Celebrations 21 June 2015 2015-06-15 13:54:11
Display of Final List of Contestants Election 2015-16 2015-06-15 13:51:56
Election Management Committee (2015-2016) 2015-05-19 13:18:56
For Information to All 2015-05-10 13:56:35
ELECTION SCHEDULE 2015-2016 2015-04-17 13:07:30
NOTIFICATION FOR ELECTION 2015-2016 2015-04-17 13:05:48
Election Management Committee (2015-2016) 2015-04-12 13:13:04
Charges Professional Service 2015-04-02 11:39:52
Charges Professional Service 2015-04-02 11:38:46
Notice- Road Repairs 2015-03-16 14:10:11
NOTICE-For information of all Enhance Compensation land 2015-03-16 14:09:03
Enhance Compensation Land 2015-03-16 14:08:18
Notice- Managing Temple Affairs Search for President and Secretary 2015-03-16 14:07:21
Notice- Violation of Security Norms Construction & Casual Labour 2015-03-16 14:06:35
Notice- New Year Message 2015-03-16 14:05:44
Notice- Stray Dog Menace Latest On the Subject 2015-03-16 14:03:22
Important Notice 2015-03-16 14:02:02
Notice- Replacement Society Lighting System with LED lights 2015-03-16 14:00:14
Charges for Booking of Hall Lawn latest request observation and comments in writing to society office please 2015-03-16 13:59:17
JalVayu Vihar FLAT - Greater Noida| Domain & Hosted By Webhostnucleus| Greater noida|
Privacy  | Terms & Conditions   |   Contact
©2007 jvvgreaternoida.com. All Rights Reserved.
Visitor Counter :
Designed & Hosted by WebHostNucleus
 

JALVAYU VIHAR FLAT OWNERS WELFARE ASSOCIATION, GREATER NOIDA